Location: *
(46.1833°N, 22.7667°E)
Time: 09:13:55
(UTC+00:00)

Ariane Rocket - Pass Details

Date: 17 September 2019
Orbit: 761 x 769 km, 98.8° (Epoch: 19 October)

Event Time Altitude Azimuth Distance (km) Brightness Sun altitude
Rises 16:56:37 0° 151° (SSE) 3,212 5.9 -4.1°
Reaches altitude 10° 16:58:56 10° 148° (SSE) 2,292 5.1 -4.5°
Maximum altitude 17:03:52 57° 70° (ENE) 902 3.1 -5.4°
Drops below altitude 10° 17:08:51 10° 353° (N) 2,313 5.7 -6.2°
Sets 17:11:11 0° 350° (N) 3,245 6.5 -6.6°
